�������l�o���
Date,Time,MP-1(��Sv/h),MP-2(��Sv/h),MP-3(��Sv/h),MP-4(��Sv/h),MP-5(��Sv/h),MP-6(��Sv/h),MP-7(��Sv/h),MP-8(��Sv/h),����,����(m/s),���J
2022/10/26,00:00,0.564,0.806,0.515,1.027,0.712,0.331,0.580,0.549,�k�k��,11.0,��
2022/10/26,00:10,0.564,0.803,0.514,1.027,0.711,0.331,0.582,0.551,�k��,11.3,��
2022/10/26,00:20,0.562,0.807,0.513,1.026,0.712,0.331,0.580,0.550,�k�k��,9.9,��
2022/10/26,00:30,0.561,0.805,0.515,1.026,0.713,0.332,0.579,0.550,�k�k��,11.8,��
2022/10/26,00:40,0.561,0.806,0.515,1.026,0.711,0.332,0.580,0.551,�k�k��,10.6,��
2022/10/26,00:50,0.563,0.806,0.515,1.026,0.709,0.332,0.581,0.550,�k��,11.9,��
2022/10/26,01:00,0.561,0.806,0.514,1.027,0.712,0.332,0.581,0.552,�k�k��,11.4,��
2022/10/26,01:10,0.564,0.806,0.513,1.027,0.711,0.331,0.580,0.550,�k�k��,9.8,��
2022/10/26,01:20,0.562,0.806,0.513,1.027,0.712,0.332,0.581,0.552,�k�k��,9.8,��
2022/10/26,01:30,0.562,0.806,0.515,1.030,0.711,0.331,0.581,0.549,�k�k��,9.6,��
2022/10/26,01:40,0.562,0.806,0.514,1.026,0.710,0.331,0.581,0.551,�k�k��,10.7,��
2022/10/26,01:50,0.563,0.806,0.515,1.028,0.712,0.331,0.581,0.550,�k�k��,9.5,��
2022/10/26,02:00,0.563,0.805,0.513,1.026,0.712,0.331,0.582,0.551,�k�k��,10.5,��
2022/10/26,02:10,0.563,0.807,0.516,1.029,0.713,0.331,0.580,0.551,�k�k��,10.2,��
2022/10/26,02:20,0.563,0.807,0.516,1.028,0.710,0.331,0.582,0.551,�k�k��,9.5,��
2022/10/26,02:30,0.562,0.808,0.515,1.028,0.712,0.331,0.580,0.549,�k�k��,9.2,��
2022/10/26,02:40,0.564,0.807,0.514,1.027,0.713,0.331,0.582,0.550,�k�k��,9.4,��
2022/10/26,02:50,0.560,0.807,0.515,1.026,0.711,0.332,0.580,0.551,�k�k��,10.2,��
2022/10/26,03:00,0.562,0.809,0.515,1.027,0.712,0.332,0.580,0.552,�k�k��,9.4,��
2022/10/26,03:10,0.562,0.807,0.515,1.028,0.711,0.330,0.583,0.552,�k�k��,9.8,��
2022/10/26,03:20,0.563,0.806,0.515,1.029,0.713,0.333,0.582,0.551,�k��,10.2,��
2022/10/26,03:30,0.563,0.807,0.515,1.028,0.713,0.331,0.582,0.551,�k��,11.3,��
2022/10/26,03:40,0.563,0.808,0.515,1.027,0.713,0.332,0.583,0.550,�k�k��,9.6,��
2022/10/26,03:50,0.564,0.807,0.514,1.028,0.712,0.331,0.582,0.551,�k�k��,8.7,��
2022/10/26,04:00,0.562,0.808,0.514,1.030,0.712,0.330,0.584,0.551,�k�k��,10.0,��
2022/10/26,04:10,0.563,0.808,0.515,1.026,0.713,0.331,0.583,0.551,�k�k��,9.1,��
2022/10/26,04:20,0.564,0.807,0.516,1.029,0.710,0.330,0.582,0.552,�k�k��,9.2,��
2022/10/26,04:30,0.564,0.809,0.516,1.028,0.714,0.332,0.583,0.550,�k�k��,9.4,��
2022/10/26,04:40,0.564,0.807,0.517,1.028,0.713,0.330,0.582,0.550,�k�k��,8.8,��
2022/10/26,04:50,0.563,0.808,0.515,1.030,0.714,0.332,0.581,0.551,�k�k��,9.0,��
2022/10/26,05:00,0.564,0.808,0.515,1.030,0.714,0.332,0.582,0.551,�k�k��,8.8,��
2022/10/26,05:10,0.564,0.809,0.515,1.031,0.714,0.332,0.582,0.551,�k�k��,9.8,��
2022/10/26,05:20,0.565,0.809,0.515,1.028,0.715,0.332,0.580,0.550,�k�k��,9.6,��
2022/10/26,05:30,0.565,0.808,0.515,1.031,0.715,0.332,0.582,0.552,�k�k��,8.7,��
2022/10/26,05:40,0.563,0.809,0.515,1.029,0.715,0.332,0.583,0.552,�k�k��,8.1,��
2022/10/26,05:50,0.563,0.809,0.517,1.029,0.714,0.331,0.582,0.553,�k�k��,9.7,��
2022/10/26,06:00,0.563,0.810,0.517,1.030,0.715,0.331,0.582,0.551,�k�k��,9.9,��
2022/10/26,06:10,0.564,0.809,0.516,1.029,0.715,0.331,0.581,0.552,�k�k��,10.2,��
2022/10/26,06:20,0.563,0.810,0.514,1.030,0.715,0.332,0.581,0.551,�k�k��,9.2,��
2022/10/26,06:30,0.564,0.811,0.516,1.030,0.716,0.330,0.582,0.551,�k�k��,9.4,��
2022/10/26,06:40,0.563,0.810,0.516,1.029,0.716,0.332,0.581,0.551,�k�k��,10.0,��
2022/10/26,06:50,0.564,0.810,0.516,1.030,0.715,0.334,0.581,0.552,�k�k��,10.2,��
2022/10/26,07:00,0.565,0.809,0.518,1.029,0.713,0.331,0.581,0.552,�k�k��,10.2,��
2022/10/26,07:10,0.564,0.809,0.515,1.031,0.715,0.332,0.582,0.551,�k�k��,10.0,��
2022/10/26,07:20,0.564,0.808,0.516,1.031,0.716,0.332,0.583,0.551,�k�k��,9.8,��
2022/10/26,07:30,0.565,0.808,0.517,1.032,0.714,0.331,0.582,0.551,�k�k��,9.5,��
2022/10/26,07:40,0.565,0.808,0.514,1.030,0.713,0.331,0.582,0.550,�k�k��,9.4,��
2022/10/26,07:50,0.564,0.809,0.515,1.029,0.713,0.330,0.581,0.552,�k�k��,8.3,��
2022/10/26,08:00,0.564,0.808,0.517,1.031,0.714,0.329,0.581,0.551,�k�k��,8.9,��
2022/10/26,08:10,0.564,0.808,0.515,1.033,0.716,0.329,0.581,0.551,�k�k��,8.4,��
2022/10/26,08:20,0.564,0.808,0.515,1.029,0.715,0.328,0.581,0.551,�k�k��,8.2,��
2022/10/26,08:30,0.564,0.808,0.515,1.030,0.714,0.330,0.581,0.552,�k�k��,10.2,��
2022/10/26,08:40,0.565,0.809,0.516,1.031,0.714,0.331,0.583,0.551,�k�k��,9.1,��
2022/10/26,08:50,0.566,0.809,0.516,1.030,0.715,0.331,0.582,0.552,�k�k��,8.5,��
2022/10/26,09:00,0.565,0.809,0.516,1.031,0.714,0.330,0.583,0.551,�k�k��,8.5,��
2022/10/26,09:10,0.565,0.809,0.516,1.029,0.716,0.330,0.583,0.552,�k�k��,9.3,��
2022/10/26,09:20,0.566,0.807,0.515,1.031,0.715,0.332,0.583,0.552,�k�k��,7.9,��
2022/10/26,09:30,0.566,0.807,0.516,1.029,0.715,0.332,0.582,0.553,�k�k��,10.9,��
2022/10/26,09:40,0.566,0.807,0.514,1.031,0.716,0.333,0.581,0.551,�k�k��,10.2,��
2022/10/26,09:50,0.565,0.809,0.516,1.031,0.717,0.332,0.581,0.553,�k,8.7,��
2022/10/26,10:00,0.566,0.808,0.518,1.029,0.717,0.333,0.582,0.553,�k�k��,9.7,��
2022/10/26,10:10,0.564,0.810,0.516,1.028,0.715,0.333,0.582,0.554,�k,8.5,��
2022/10/26,10:20,0.566,0.810,0.515,-,0.716,0.332,0.581,0.552,�k,10.3,��
2022/10/26,10:30,0.566,0.809,0.517,-,0.718,0.332,0.584,0.552,�k,10.4,��
2022/10/26,10:40,0.565,0.809,0.516,-,0.717,0.332,0.582,0.551,�k,9.5,��
2022/10/26,10:50,0.566,0.811,0.516,-,0.716,0.331,0.583,0.553,�k,10.9,��
2022/10/26,11:00,0.561,0.808,0.516,-,0.718,0.331,0.582,0.552,�k,10.4,��
2022/10/26,11:10,0.565,0.809,0.518,-,0.717,0.332,0.584,0.551,�k,9.1,��
2022/10/26,11:20,0.565,0.805,0.514,-,0.715,0.330,0.582,0.551,�k,10.4,��
2022/10/26,11:30,0.565,0.809,0.515,-,0.715,0.330,0.583,0.551,�k,10.2,��
2022/10/26,11:40,0.564,0.809,0.516,-,0.716,0.330,0.583,0.552,�k,9.6,��
2022/10/26,11:50,0.566,0.810,0.516,-,0.719,0.332,0.582,0.552,�k,9.6,��
2022/10/26,12:00,0.565,0.813,0.517,-,0.718,0.331,0.584,0.551,�k,11.3,��
2022/10/26,12:10,0.567,0.813,0.517,-,0.717,0.332,0.583,0.552,�k,10.6,��
2022/10/26,12:20,0.567,0.812,0.516,-,0.717,0.332,0.583,0.552,�k,8.7,��
2022/10/26,12:30,0.567,0.813,0.515,-,0.717,0.333,0.584,0.552,�k,9.5,��
2022/10/26,12:40,0.566,0.813,0.518,-,0.718,0.333,0.582,0.549,�k,8.4,��
2022/10/26,12:50,0.566,0.813,0.517,-,0.719,0.333,0.582,0.550,�k,10.5,��
2022/10/26,13:00,0.566,0.811,0.516,-,0.719,0.333,0.584,0.549,�k,10.5,��
2022/10/26,13:10,0.566,0.811,0.516,-,0.719,0.335,0.583,0.549,�k,9.4,��
2022/10/26,13:20,0.567,0.813,0.517,-,0.719,0.333,0.584,0.551,�k�k��,9.0,��
2022/10/26,13:30,0.568,0.812,0.517,-,0.719,0.332,0.583,0.552,�k,9.7,��
2022/10/26,13:40,0.566,0.813,0.517,1.032,0.720,0.331,0.583,0.550,�k,8.9,��
2022/10/26,13:50,0.566,0.812,0.515,1.035,0.719,0.332,0.583,0.551,�k,11.1,��
2022/10/26,14:00,0.565,0.811,0.516,1.037,0.720,0.332,0.584,0.551,�k,9.4,��
2022/10/26,14:10,0.565,0.811,0.516,1.036,0.717,0.332,0.583,0.551,�k,7.9,��
2022/10/26,14:20,0.566,0.813,0.517,1.036,0.718,0.332,0.582,0.551,�k,9.3,��
2022/10/26,14:30,0.564,0.813,0.516,1.035,0.720,0.332,0.583,0.552,�k,10.7,��
2022/10/26,14:40,0.566,0.810,0.520,1.035,0.720,0.332,0.584,0.552,�k,11.3,��
2022/10/26,14:50,0.567,0.812,0.518,1.036,0.719,0.331,0.584,0.550,�k,8.9,��
2022/10/26,15:00,0.564,0.813,0.520,1.036,0.719,0.333,0.583,0.552,�k,9.5,��
2022/10/26,15:10,0.568,0.814,0.521,1.036,0.718,0.333,0.581,0.551,�k,7.6,��
2022/10/26,15:20,0.569,0.813,0.518,1.034,0.719,0.332,0.582,0.553,�k,7.3,��
2022/10/26,15:30,0.568,0.815,0.520,1.034,0.720,0.333,0.583,0.551,�k,7.1,��
2022/10/26,15:40,0.567,0.817,0.520,1.034,0.719,0.333,0.583,0.552,�k,8.2,��
2022/10/26,15:50,0.568,0.817,0.519,1.036,0.720,0.334,0.583,0.555,�k,8.4,��
2022/10/26,16:00,0.567,0.818,0.519,1.037,0.720,0.334,0.583,0.553,�k,6.0,��
2022/10/26,16:10,0.565,0.819,0.521,1.036,0.721,0.334,0.583,0.553,�k,4.7,��
2022/10/26,16:20,0.569,0.817,0.520,1.037,0.721,0.334,0.584,0.553,�k�k��,4.9,��
2022/10/26,16:30,0.567,0.819,0.519,1.036,0.719,0.332,0.583,0.553,�k�k��,5.1,��
2022/10/26,16:40,0.566,0.821,0.519,1.039,0.722,0.333,0.581,0.552,�k�k��,5.4,��
2022/10/26,16:50,0.568,0.816,0.520,1.036,0.721,0.334,0.583,0.554,�k�k��,5.2,��
2022/10/26,17:00,0.569,0.817,0.520,1.034,0.721,0.334,0.583,0.553,�k�k��,6.0,��
2022/10/26,17:10,0.569,0.818,0.519,1.038,0.722,0.333,0.584,0.554,�k�k��,6.1,��
2022/10/26,17:20,0.567,0.818,0.519,1.037,0.721,0.334,0.584,0.553,�k�k��,5.3,��
2022/10/26,17:30,0.566,0.818,0.519,1.037,0.723,0.333,0.586,0.552,�k��,4.6,��
2022/10/26,17:40,0.569,0.818,0.519,1.035,0.722,0.334,0.585,0.553,�k��,5.5,��
2022/10/26,17:50,0.567,0.819,0.521,1.038,0.723,0.333,0.584,0.555,�k��,5.5,��
2022/10/26,18:00,0.568,0.819,0.521,1.037,0.721,0.334,0.584,0.553,�k��,5.8,��
2022/10/26,18:10,0.567,0.817,0.520,1.037,0.723,0.333,0.585,0.555,�k��,5.1,��
2022/10/26,18:20,0.570,0.817,0.518,1.038,0.723,0.332,0.586,0.554,�k��,5.6,��
2022/10/26,18:30,0.568,0.818,0.519,1.037,0.724,0.333,0.584,0.553,�k��,5.4,��
2022/10/26,18:40,0.567,0.819,0.518,1.036,0.724,0.332,0.584,0.553,�k��,4.6,��
2022/10/26,18:50,0.568,0.818,0.518,1.036,0.724,0.332,0.584,0.552,�k��,4.7,��
2022/10/26,19:00,0.568,0.820,0.519,1.036,0.723,0.334,0.585,0.553,�k��,5.1,��
2022/10/26,19:10,0.567,0.817,0.519,1.035,0.724,0.332,0.584,0.552,�k��,4.7,��
2022/10/26,19:20,0.568,0.818,0.518,1.037,0.724,0.333,0.583,0.553,�k��,4.8,��
2022/10/26,19:30,0.568,0.816,0.519,1.036,0.724,0.332,0.585,0.552,�k��,5.4,��
2022/10/26,19:40,0.569,0.818,0.519,1.037,0.722,0.334,0.585,0.553,�k��,4.9,��
2022/10/26,19:50,0.568,0.817,0.520,1.037,0.721,0.332,0.586,0.553,�k��,5.3,��
2022/10/26,20:00,0.569,0.819,0.517,1.036,0.722,0.333,0.586,0.553,�k��,5.5,��
2022/10/26,20:10,0.569,0.817,0.520,1.036,0.722,0.333,0.583,0.552,�k��,5.1,��
2022/10/26,20:20,0.568,0.818,0.520,1.035,0.724,0.332,0.584,0.554,�k��,5.3,��
2022/10/26,20:30,0.567,0.818,0.519,1.039,0.722,0.334,0.585,0.553,�k�k��,5.3,��
2022/10/26,20:40,0.568,0.818,0.519,1.037,0.724,0.333,0.585,0.552,�k�k��,5.3,��
2022/10/26,20:50,0.568,0.816,0.519,1.037,0.724,0.332,0.585,0.553,�k��,5.5,��
2022/10/26,21:00,0.567,0.818,0.518,1.039,0.724,0.333,0.586,0.553,�k��,5.1,��
2022/10/26,21:10,0.567,0.818,0.520,1.039,0.722,0.332,0.585,0.553,�k��,5.0,��
2022/10/26,21:20,0.568,0.818,0.520,1.037,0.723,0.333,0.586,0.553,�k��,5.4,��
2022/10/26,21:30,0.567,0.816,0.518,1.036,0.722,0.332,0.585,0.552,�k��,4.8,��
2022/10/26,21:40,0.567,0.818,0.517,1.037,0.724,0.333,0.585,0.552,�k��,5.0,��
2022/10/26,21:50,0.566,0.818,0.517,1.037,0.722,0.334,0.584,0.553,�k��,5.4,��
2022/10/26,22:00,0.569,0.819,0.518,1.037,0.722,0.334,0.586,0.552,�k��,5.3,��
2022/10/26,22:10,0.567,0.819,0.517,1.037,0.721,0.332,0.586,0.554,�k��,5.2,��
2022/10/26,22:20,0.567,0.815,0.516,1.040,0.723,0.333,0.584,0.554,�k��,5.6,��
2022/10/26,22:30,0.568,0.816,0.517,1.036,0.722,0.333,0.587,0.552,�k��,5.7,��
2022/10/26,22:40,0.567,0.818,0.518,1.036,0.724,0.333,0.585,0.553,�k��,5.6,��
2022/10/26,22:50,0.568,0.817,0.520,1.037,0.723,0.333,0.586,0.553,�k��,5.4,��
2022/10/26,23:00,0.568,0.818,0.519,1.037,0.722,0.333,0.586,0.554,�k��,5.2,��
2022/10/26,23:10,0.566,0.818,0.521,1.039,0.722,0.335,0.586,0.554,�k�k��,4.8,��
2022/10/26,23:20,0.568,0.815,0.518,1.039,0.720,0.332,0.585,0.552,�k��,5.5,��
2022/10/26,23:30,0.569,0.817,0.519,1.036,0.722,0.333,0.585,0.554,�k�k��,5.5,��
2022/10/26,23:40,0.566,0.817,0.518,1.037,0.721,0.332,0.587,0.552,�k�k��,5.8,��
2022/10/26,23:50,0.568,0.819,0.519,1.037,0.723,0.334,0.586,0.553,�k�k��,5.9,��
